Tracking 19247 objects as of 24-Sep-2018
HD Live streaming from Space Station
objects crossing your sky now

FENGYUN 1C DEB

Track FENGYUN 1C DEB now!
10-day predictions


NORAD ID: 31345
Int'l Code: 1999-025BQZ
Perigee: 835.5 km
Apogee: 970.1 km
Inclination: 98.1 °
Period: 102.9 minutes
Semi major axis: 7273 km
RCS: 0.0093 m2 (small)
Launch date: May 10, 1999
Source: People's Republic of China (PRC)
Launch site: Taiyaun Space Center, China (TSC)

Note: This is SATELLITE DEBRIS
aabbcc
Your satellite tracking list
Your tracking list is empty




NASA's NSSDC Master Catalog

Two Line Element Set (TLE):
1 31345U 99025BQZ 18266.49990816 +.00001011 +00000-0 +69297-3 0  9999
2 31345 098.1343 164.9719 0092564 032.7619 327.9242 13.99464202585172
Source of the keplerian elements: AFSPC